GW1728 Weather Reports


Display with metric or nautical units.
time (UTC)temp
F
wind
direction
speed
MPH
gust
MPH
rain 1hr
in
rain 24hr
in
rain mn
in
humidity
%
barometer
mb
20260904215829 75 355 6.0 7.0 0.00 0.00 0.00 34 1013.6
20260904215325 76 19 3.0 5.0 0.00 0.00 0.00 34 1013.4
20260904214821 77 265 1.0 2.0 0.00 0.00 0.00 35 1013.2
20260904214316 76 256 2.0 2.0 0.00 0.00 0.00 33 1013.3
20260904213814 76 280 2.0 3.0 0.00 0.00 0.00 34 1013.1
20260904213309 76 272 3.0 3.0 0.00 0.00 0.00 35 1013.1
20260904212805 76 5 5.0 8.0 0.00 0.00 0.00 34 1013.2
20260904212300 77 337 2.0 2.0 0.00 0.00 0.00 34 1013.1
20260904211755 76 232 1.0 2.0 0.00 0.00 0.00 35 1013.2
20260904211249 75 21 2.0 2.0 0.00 0.00 0.00 34 1013.2
20260904210745 76 321 5.0 7.0 0.00 0.00 0.00 33 1013.2
20260904210239 75 5 5.0 8.0 0.00 0.00 0.00 36 1013.1
20260904205736 76 357 5.0 9.0 0.00 0.00 0.00 33 1012.9
20260904205231 75 257 1.0 1.0 0.00 0.00 0.00 35 1012.9
20260904204728 75 344 6.0 10.0 0.00 0.00 0.00 34 1013.0
20260904204223 75 5 2.0 3.0 0.00 0.00 0.00 34 1012.9
20260904203719 75 33 3.0 5.0 0.00 0.00 0.00 34 1013.0
20260904203216 75 296 3.0 5.0 0.00 0.00 0.00 34 1012.9
20260904202711 75 267 2.0 3.0 0.00 0.00 0.00 34 1013.0
20260904202207 75 320 4.0 5.0 0.00 0.00 0.00 35 1012.6
20260904201708 74 22 2.0 3.0 0.00 0.00 0.00 36 1012.8
20260904201202 74 352 4.0 6.0 0.00 0.00 0.00 36 1012.8
20260904200656 74 264 2.0 2.0 0.00 0.00 0.00 38 1012.7
20260904200151 74 312 2.0 3.0 0.00 0.00 0.00 36 1012.6
20260904195650 74 255 1.0 1.0 0.00 0.00 0.00 36 1012.3
20260904195144 74 264 4.0 5.0 0.00 0.00 0.00 35 1012.5
20260904194644 75 326 3.0 5.0 0.00 0.00 0.00 35 1012.2
20260904194138 74 342 3.0 3.0 0.00 0.00 0.00 36 1012.1
20260904193633 74 301 5.0 8.0 0.00 0.00 0.00 38 1012.0
20260904193130 74 6 3.0 3.0 0.00 0.00 0.00 37 1012.0
20260904192630 74 95 1.0 2.0 0.00 0.00 0.00 36 1012.0
20260904192125 74 34 2.0 2.0 0.00 0.00 0.00 37 1011.8
20260904191621 74 115 2.0 2.0 0.00 0.00 0.00 38 1011.8
20260904191118 72 301 2.0 3.0 0.00 0.00 0.00 39 1011.8
20260904190613 72 328 4.0 6.0 0.00 0.00 0.00 37 1011.7
20260904190109 72 34 2.0 3.0 0.00 0.00 0.00 39 1011.5
20260904185606 73 31 5.0 13.0 0.00 0.00 0.00 37 1011.4
20260904185100 72 317 3.0 5.0 0.00 0.00 0.00 38 1011.4
20260904184559 73 16 4.0 6.0 0.00 0.00 0.00 39 1011.5
20260904184055 73 271 5.0 8.0 0.00 0.00 0.00 38 1011.5
20260904183550 71 299 2.0 3.0 0.00 0.00 0.00 41 1011.3
20260904183045 71 185 1.0 2.0 0.00 0.00 0.00 40 1011.4
20260904182541 70 31 4.0 6.0 0.00 0.00 0.00 40 1011.4
20260904182041 71 268 3.0 3.0 0.00 0.00 0.00 39 1011.3
20260904181536 70 146 2.0 2.0 0.00 0.00 0.00 42 1011.3
20260904181036 69 175 0.0 1.0 0.00 0.00 0.00 43 1011.1
20260904180531 68 4 3.0 5.0 0.00 0.00 0.00 43 1011.6
20260904180026 69 338 3.0 6.0 0.00 0.00 0.00 43 1011.3
20260904175520 69 309 2.0 3.0 0.00 0.00 0.00 45 1011.5
20260904175018 68 336 6.0 8.0 0.00 0.00 0.00 43 1011.1
20260904174514 67 11 3.0 3.0 0.00 0.00 0.00 45 1011.3
20260904174011 66 199 1.0 1.0 0.00 0.00 0.00 47 1011.1
20260904173505 65 356 3.0 6.0 0.00 0.00 0.00 47 1011.3
20260904173000 64 330 3.0 3.0 0.00 0.00 0.00 49 1011.1
20260904172456 63 277 5.0 9.0 0.00 0.00 0.00 50 1011.5
20260904171950 64 319 3.0 6.0 0.00 0.00 0.00 51 1011.3
20260904171445 62 182 3.0 3.0 0.00 0.00 0.00 52 1011.5
20260904170941 62 293 3.0 5.0 0.00 0.00 0.00 55 1011.1
20260904170441 61 214 1.0 1.0 0.00 0.00 0.00 55 1011.1
20260904165937 61 169 3.0 3.0 0.00 0.00 0.00 55 1011.3
20260904165436 61 216 0.0 0.0 0.00 0.00 0.00 56 1011.0
20260904164935 61 247 2.0 3.0 0.00 0.00 0.00 54 1011.1
20260904164430 60 36 1.0 1.0 0.00 0.00 0.00 59 1010.7
20260904163927 59 167 2.0 2.0 0.00 0.00 0.00 60 1010.7
20260904163426 59 289 2.0 2.0 0.00 0.00 0.00 61 1010.6
20260904162926 58 322 1.0 2.0 0.00 0.00 0.00 60 1010.4
20260904162421 58 286 1.0 2.0 0.00 0.00 0.00 62 1010.6
20260904161911 57 182 2.0 2.0 0.00 0.00 0.00 62 1010.3
20260904161406 58 68 0.0 1.0 0.00 0.00 0.00 62 1010.6
20260904160902 58 222 0.0 0.0 0.00 0.00 0.00 64 1010.6
20260904160357 57 94 1.0 2.0 0.00 0.00 0.00 64 1010.3
20260904155852 57 330 2.0 2.0 0.00 0.00 0.00 63 1010.3
20260904155346 58 247 1.0 1.0 0.00 0.00 0.00 62 1010.3
20260904154844 58 218 2.0 2.0 0.00 0.00 0.00 62 1010.2
20260904154339 58 2 2.0 3.0 0.00 0.00 0.00 61 1010.2
20260904153835 58 263 1.0 1.0 0.00 0.00 0.00 62 1010.0
20260904153330 58 205 1.0 2.0 0.00 0.00 0.00 65 1010.0
20260904152826 58 235 0.0 1.0 0.00 0.00 0.00 64 1010.2
20260904152321 58 294 1.0 2.0 0.00 0.00 0.00 64 1009.8
20260904151816 57 237 0.0 0.0 0.00 0.00 0.00 66 1010.0
20260904151315 57 239 1.0 2.0 0.00 0.00 0.00 64 1009.9
20260904150811 57 148 0.0 1.0 0.00 0.00 0.00 66 1009.6
20260904150306 57 348 2.0 2.0 0.00 0.00 0.00 66 1009.4
20260904145804 57 201 0.0 0.0 0.00 0.00 0.00 67 1009.4
20260904145300 58 268 0.0 1.0 0.00 0.00 0.00 64 1009.1
20260904144755 58 255 0.0 0.0 0.00 0.00 0.00 64 1009.2
20260904144251 59 21 1.0 1.0 0.00 0.00 0.00 65 1009.0
20260904143747 60 234 2.0 2.0 0.00 0.00 0.00 66 1008.8
20260904143243 59 26 1.0 2.0 0.00 0.00 0.00 62 1008.7
20260904142739 59 305 0.0 1.0 0.00 0.00 0.00 67 1008.4
20260904142235 58 332 1.0 1.0 0.00 0.00 0.00 68 1008.3
20260904141735 57 26 4.0 6.0 0.00 0.00 0.00 68 1008.3
20260904141230 56 285 1.0 2.0 0.00 0.00 0.00 75 1008.2
20260904140726 55 253 0.0 0.0 0.00 0.00 0.00 78 1008.2
20260904140221 53 305 1.0 2.0 0.00 0.00 0.00 79 1008.2
20260904135719 53 275 0.0 0.0 0.00 0.00 0.00 80 1008.3
20260904135215 52 320 3.0 3.0 0.00 0.00 0.00 79 1008.5
20260904134711 52 233 1.0 1.0 0.00 0.00 0.00 78 1008.4
20260904134210 51 9 1.0 2.0 0.00 0.00 0.00 78 1008.0
20260904133705 51 98 1.0 1.0 0.00 0.00 0.00 81 1008.6
20260904133202 51 64 0.0 0.0 0.00 0.00 0.00 82 1008.5
20260904132700 51 244 0.0 0.0 0.00 0.00 0.00 84 1008.8
20260904132156 51 231 3.0 3.0 0.00 0.00 0.00 83 1009.0
20260904131655 50 7 3.0 5.0 0.00 0.00 0.00 83 1008.3
20260904131150 50 241 0.0 1.0 0.00 0.00 0.00 83 1009.1
20260904130645 50 268 0.0 1.0 0.00 0.00 0.00 82 1008.5
20260904130144 49 285 0.0 0.0 0.00 0.00 0.00 82 1008.4
20260904125641 49 264 0.0 0.0 0.00 0.00 0.00 84 1008.6
20260904125136 49 264 0.0 0.0 0.00 0.00 0.00 85 1009.0
20260904124631 48 328 0.0 0.0 0.00 0.00 0.00 85 1008.8
20260904124127 48 227 0.0 0.0 0.00 0.00 0.00 85 1008.5
20260904123627 48 296 0.0 0.0 0.00 0.00 0.00 86 1008.5
20260904123123 48 233 0.0 0.0 0.00 0.00 0.00 86 1008.5
20260904122617 48 254 0.0 0.0 0.00 0.00 0.00 86 1008.2
20260904122112 48 286 0.0 0.0 0.00 0.00 0.00 86 1008.2
20260904121607 48 255 0.0 0.0 0.00 0.00 0.00 87 1008.5
20260904121103 48 255 0.0 0.0 0.00 0.00 0.00 86 1008.2
20260904120559 48 253 0.0 0.0 0.00 0.00 0.00 86 1008.2
20260904120055 48 253 0.0 0.0 0.00 0.00 0.00 86 1008.3
20260904115550 48 255 0.0 0.0 0.00 0.00 0.00 86 1008.1
20260904115045 48 258 0.0 0.0 0.00 0.00 0.00 85 1008.1
20260904114545 48 259 0.0 0.0 0.00 0.00 0.00 85 1008.2
20260904114044 48 261 0.0 0.0 0.00 0.00 0.00 84 1008.3
20260904113539 49 264 0.0 1.0 0.00 0.00 0.00 83 1008.5
20260904113038 49 314 0.0 0.0 0.00 0.00 0.00 83 1008.4
20260904112534 48 272 0.0 0.0 0.00 0.00 0.00 84 1008.1
20260904112030 49 298 1.0 2.0 0.00 0.00 0.00 84 1008.3
20260904111526 49 291 1.0 2.0 0.00 0.00 0.00 83 1008.2
20260904111021 49 265 1.0 1.0 0.00 0.00 0.00 83 1008.5
20260904110520 49 257 0.0 0.0 0.00 0.00 0.00 82 1008.4
20260904110017 50 262 1.0 1.0 0.00 0.00 0.00 81 1008.5
20260904105510 50 264 0.0 0.0 0.00 0.00 0.00 80 1008.7
20260904105005 50 282 1.0 1.0 0.00 0.00 0.00 80 1008.7
20260904104500 51 266 0.0 0.0 0.00 0.00 0.00 78 1008.6
20260904103956 51 261 1.0 1.0 0.00 0.00 0.00 78 1008.7
20260904103452 52 263 0.0 0.0 0.00 0.00 0.00 75 1008.6
20260904102948 51 268 0.0 0.0 0.00 0.00 0.00 75 1009.0
20260904102443 51 307 2.0 2.0 0.00 0.00 0.00 77 1008.8
20260904101938 52 277 0.0 0.0 0.00 0.00 0.00 76 1009.0
20260904101435 52 289 0.0 0.0 0.00 0.00 0.00 73 1009.1
20260904100931 52 355 0.0 0.0 0.00 0.00 0.00 73 1009.2
20260904100427 53 222 0.0 1.0 0.00 0.00 0.00 72 1009.3
20260904095920 54 248 4.0 5.0 0.00 0.00 0.00 67 1009.0
20260904095415 55 3 3.0 3.0 0.00 0.00 0.00 63 1009.0
20260904094910 56 28 4.0 5.0 0.00 0.00 0.00 60 1009.0
20260904094406 54 288 2.0 2.0 0.00 0.00 0.00 64 1009.3
20260904093902 53 300 1.0 2.0 0.00 0.00 0.00 72 1009.2
20260904093402 54 344 1.0 2.0 0.00 0.00 0.00 67 1009.2
20260904092857 54 359 5.0 6.0 0.00 0.00 0.00 66 1009.2
20260904092353 53 158 0.0 0.0 0.00 0.00 0.00 70 1009.4
20260904091849 53 147 0.0 0.0 0.00 0.00 0.00 70 1009.3
20260904091345 53 123 1.0 1.0 0.00 0.00 0.00 74 1009.2
20260904090839 52 95 1.0 2.0 0.00 0.00 0.00 70 1009.3
20260904090335 51 262 0.0 0.0 0.00 0.00 0.00 75 1009.5
20260904085830 51 235 0.0 0.0 0.00 0.00 0.00 75 1009.5
20260904085326 51 235 0.0 1.0 0.00 0.00 0.00 73 1009.5
20260904084820 50 226 1.0 1.0 0.00 0.00 0.00 75 1009.5
20260904084316 50 218 0.0 0.0 0.00 0.00 0.00 77 1009.4
20260904083812 51 172 0.0 0.0 0.00 0.00 0.00 76 1009.7
20260904083308 51 165 0.0 0.0 0.00 0.00 0.00 75 1009.6
20260904082803 53 149 0.0 0.0 0.00 0.00 0.00 70 1009.6
20260904082258 52 145 0.0 0.0 0.00 0.00 0.00 72 1009.8
20260904081753 51 142 0.0 0.0 0.00 0.00 0.00 74 1009.7
20260904081249 51 143 0.0 0.0 0.00 0.00 0.00 77 1009.8
20260904080744 51 136 0.0 0.0 0.00 0.00 0.00 77 1009.9
20260904080239 51 145 0.0 0.0 0.00 0.00 0.00 77 1009.9
20260904075736 52 47 0.0 1.0 0.00 0.00 0.00 77 1009.8
20260904075231 50 152 0.0 0.0 0.00 0.00 0.00 81 1010.0
20260904074730 51 149 0.0 0.0 0.00 0.00 0.00 79 1010.2
20260904074224 52 142 1.0 2.0 0.00 0.00 0.00 77 1010.3
20260904073720 51 239 0.0 0.0 0.00 0.00 0.00 79 1010.3
20260904073216 51 241 0.0 0.0 0.00 0.00 0.00 78 1010.4
20260904072712 52 242 0.0 0.0 0.00 0.00 0.00 77 1010.2
20260904072206 52 238 0.0 0.0 0.00 0.00 0.00 77 1010.5
20260904071702 52 228 0.0 0.0 0.00 0.00 0.00 77 1010.4
20260904071156 52 220 0.0 0.0 0.00 0.00 0.00 77 1010.4
20260904070656 51 218 0.0 0.0 0.00 0.00 0.00 78 1010.4
20260904070155 51 201 0.0 0.0 0.00 0.00 0.00 78 1010.4
20260904065650 52 200 0.0 0.0 0.00 0.00 0.00 77 1010.7
20260904065148 52 191 0.0 0.0 0.00 0.00 0.00 77 1010.7
20260904064647 53 260 0.0 0.0 0.00 0.00 0.00 77 1010.7
20260904064142 53 260 0.0 0.0 0.00 0.00 0.00 75 1010.7
20260904063638 53 260 0.0 0.0 0.00 0.00 0.00 74 1010.5
20260904063134 53 262 0.0 0.0 0.00 0.00 0.00 76 1010.4
20260904062630 53 260 0.0 0.0 0.00 0.00 0.00 78 1010.6
20260904062125 54 260 0.0 0.0 0.00 0.00 0.00 77 1010.4
20260904061621 54 260 0.0 0.0 0.00 0.00 0.00 76 1010.4
20260904061117 55 260 0.0 0.0 0.00 0.00 0.00 74 1010.5
20260904060613 55 260 0.0 0.0 0.00 0.00 0.00 74 1010.4
20260904060109 55 260 0.0 0.0 0.00 0.00 0.00 76 1010.5
20260904055604 55 261 0.0 0.0 0.00 0.00 0.00 76 1010.6
20260904055059 55 269 0.0 0.0 0.00 0.00 0.00 75 1010.7
20260904054555 56 284 0.0 0.0 0.00 0.00 0.00 73 1010.9
20260904054051 57 289 1.0 1.0 0.00 0.00 0.00 69 1010.9
20260904053550 57 295 0.0 0.0 0.00 0.00 0.00 66 1010.8
20260904053046 57 323 1.0 2.0 0.00 0.00 0.00 64 1010.9
20260904052542 58 353 3.0 3.0 0.00 0.00 0.00 61 1011.0
20260904052037 58 19 3.0 5.0 0.00 0.00 0.00 58 1011.0
20260904051534 58 31 3.0 3.0 0.00 0.00 0.00 61 1010.9
20260904051033 58 19 3.0 3.0 0.00 0.00 0.00 61 1011.3
20260904050529 58 25 2.0 2.0 0.00 0.00 0.00 60 1011.3
20260904050025 58 30 2.0 2.0 0.00 0.00 0.00 61 1011.4
20260904045520 57 35 1.0 1.0 0.00 0.00 0.00 62 1011.4
20260904045015 58 42 0.0 0.0 0.00 0.00 0.00 65 1011.4
20260904044510 59 42 0.0 0.0 0.00 0.00 0.00 62 1011.6
20260904044007 59 43 1.0 1.0 0.00 0.00 0.00 62 1011.5
20260904043503 59 44 1.0 1.0 0.00 0.00 0.00 62 1011.5
20260904042958 59 35 1.0 1.0 0.00 0.00 0.00 62 1011.5
20260904042455 58 49 2.0 2.0 0.00 0.00 0.00 62 1011.6
20260904041949 58 68 2.0 2.0 0.00 0.00 0.00 64 1011.4
20260904041446 58 63 3.0 3.0 0.00 0.00 0.00 63 1011.1
20260904040941 58 281 0.0 1.0 0.00 0.00 0.00 63 1011.1
20260904040441 57 281 0.0 1.0 0.00 0.00 0.00 64 1011.0
20260904035937 57 282 0.0 0.0 0.00 0.00 0.00 65 1011.0
20260904035433 57 312 0.0 0.0 0.00 0.00 0.00 65 1011.0
20260904034932 57 297 0.0 0.0 0.00 0.00 0.00 66 1010.9
20260904034427 57 348 3.0 3.0 0.00 0.00 0.00 64 1011.0
20260904033923 58 359 3.0 5.0 0.00 0.00 0.00 61 1011.1
20260904033419 57 348 2.0 2.0 0.00 0.00 0.00 64 1011.1
20260904032915 58 349 3.0 3.0 0.00 0.00 0.00 62 1011.1
20260904032410 58 351 2.0 2.0 0.00 0.00 0.00 61 1011.1
20260904031904 57 36 2.0 2.0 0.00 0.00 0.00 63 1011.3
20260904031359 59 14 1.0 1.0 0.00 0.00 0.00 60 1011.1
20260904030856 59 3 3.0 3.0 0.00 0.00 0.00 58 1011.0
20260904030351 59 358 3.0 3.0 0.00 0.00 0.00 59 1011.0
20260904025846 60 351 3.0 3.0 0.00 0.00 0.00 57 1010.9
20260904025342 60 0 3.0 3.0 0.00 0.00 0.00 57 1011.1
20260904024842 60 9 3.0 5.0 0.00 0.00 0.00 56 1010.9
20260904024337 61 6 4.0 6.0 0.00 0.00 0.00 56 1010.7
20260904023834 60 6 3.0 3.0 0.00 0.00 0.00 57 1010.7
20260904023330 61 6 3.0 3.0 0.00 0.00 0.00 56 1010.5
20260904022828 62 3 4.0 5.0 0.00 0.00 0.00 55 1010.3
20260904022326 62 2 4.0 5.0 0.00 0.00 0.00 53 1010.4
20260904021822 62 8 4.0 5.0 0.00 0.00 0.00 52 1010.4
20260904021322 62 0 4.0 5.0 0.00 0.00 0.00 52 1010.4
20260904020817 63 349 2.0 5.0 0.00 0.00 0.00 51 1010.4
20260904020312 63 0 2.0 2.0 0.00 0.00 0.00 51 1010.2
20260904015810 63 342 1.0 1.0 0.00 0.00 0.00 52 1010.2
20260904015307 64 352 1.0 2.0 0.00 0.00 0.00 51 1010.2
20260904014804 65 349 2.0 2.0 0.00 0.00 0.00 49 1009.9
20260904014300 66 10 3.0 3.0 0.00 0.00 0.00 48 1010.0
20260904013756 67 0 4.0 5.0 0.00 0.00 0.00 46 1010.0
20260904013251 67 17 5.0 7.0 0.00 0.00 0.00 44 1010.0
20260904012747 68 7 5.0 6.0 0.00 0.00 0.00 43 1009.9
20260904012247 69 355 3.0 3.0 0.00 0.00 0.00 43 1009.9
20260904011746 69 4 3.0 3.0 0.00 0.00 0.00 42 1009.8
20260904011242 70 346 4.0 5.0 0.00 0.00 0.00 41 1009.8
20260904010736 71 359 3.0 3.0 0.00 0.00 0.00 41 1009.8
20260904010233 71 14 4.0 6.0 0.00 0.00 0.00 39 1009.7
20260904005733 71 15 3.0 3.0 0.00 0.00 0.00 39 1009.9
20260904005224 72 11 4.0 5.0 0.00 0.00 0.00 38 1009.9
20260904004724 73 348 5.0 6.0 0.00 0.00 0.00 37 1009.9
20260904004219 74 332 3.0 5.0 0.00 0.00 0.00 36 1009.8
20260904003714 75 332 1.0 2.0 0.00 0.00 0.00 38 1009.9
20260904003211 75 281 1.0 1.0 0.00 0.00 0.00 36 1009.9
20260904002706 76 259 0.0 0.0 0.00 0.00 0.00 34 1010.0
20260904002202 76 270 0.0 0.0 0.00 0.00 0.00 35 1009.9
20260904001656 76 263 1.0 2.0 0.00 0.00 0.00 36 1009.8
20260904001155 76 296 2.0 2.0 0.00 0.00 0.00 35 1009.9
20260904000651 76 254 0.0 0.0 0.00 0.00 0.00 36 1009.8
20260904000146 75 260 1.0 1.0 0.00 0.00 0.00 35 1009.7
20260903235645 74 208 1.0 2.0 0.00 0.00 0.00 36 1009.8
20260903235142 75 158 1.0 1.0 0.00 0.00 0.00 35 1009.8
20260903234636 76 289 3.0 3.0 0.00 0.00 0.00 33 1009.6
20260903234132 77 201 1.0 2.0 0.00 0.00 0.00 35 1009.7
20260903233629 76 341 4.0 5.0 0.00 0.00 0.00 33 1009.5
20260903233124 77 228 0.0 0.0 0.00 0.00 0.00 35 1009.7
20260903232618 77 195 1.0 2.0 0.00 0.00 0.00 34 1009.6
20260903232114 77 20 2.0 3.0 0.00 0.00 0.00 35 1009.5
20260903231603 76 259 1.0 2.0 0.00 0.00 0.00 30 1009.6
20260903231103 77 220 2.0 2.0 0.00 0.00 0.00 32 1009.4
20260903230559 77 245 1.0 1.0 0.00 0.00 0.00 30 1009.6
20260903230057 77 230 1.0 1.0 0.00 0.00 0.00 35 1009.4
20260903225555 76 208 3.0 5.0 0.00 0.00 0.00 31 1009.4
20260903225051 77 219 2.0 2.0 0.00 0.00 0.00 32 1009.4
20260903224547 76 238 6.0 8.0 0.00 0.00 0.00 31 1009.6
20260903224043 77 237 4.0 5.0 0.00 0.00 0.00 31 1009.4
20260903223543 76 276 0.0 1.0 0.00 0.00 0.00 31 1009.6
20260903223042 75 250 4.0 8.0 0.00 0.00 0.00 32 1009.6
20260903222537 77 246 4.0 6.0 0.00 0.00 0.00 32 1009.5
20260903222035 77 236 2.0 2.0 0.00 0.00 0.00 33 1009.4
20260903221531 76 224 3.0 5.0 0.00 0.00 0.00 32 1009.2
20260903221028 76 226 17.0 18.0 0.00 0.00 0.00 30 1009.4
20260903220527 76 227 8.0 9.0 0.00 0.00 0.00 30 1009.2